Weather History for Wittering, United Kingdom

Change the Weather History Date:

Thursday, January 3, 2013

  Actual Average Record
Temperature  
Mean Temperature 49 °F -  
Max Temperature 52 °F 42 °F 53 °F (2012)
Min Temperature 46 °F 34 °F 19 °F (1997)
Degree Days  
Heating Degree Days 16    
Moisture  
Dew Point 48 °F    
Average Humidity 93    
Maximum Humidity 100    
Minimum Humidity 87    
Precipitation  
Precipitation 0.00 in - - ()
Sea Level Pressure  
Sea Level Pressure 30.43 in    
Wind  
Wind Speed 16 mph ()    
Max Wind Speed 22 mph    
Max Gust Speed -    
Visibility 6.5 miles    
Events      
Averages and records for this station are not official NWS values.
T = Trace of Precipitation, MM = Missing Value Source: Averaged Metar Reports

Daily Weather History Graph

Daily Weather History Graph

Search for Another Location

Airport:

Trip Planner

Search our weather history database for the weather conditions in past years. The results will help you decide how hot, cold, wet, or windy it might be!

Date:

Astronomy

Jan. 03, 2013 Rise Set
Actual Time 8:12 AM GMT 4:00 PM GMT
Civil Twilight 7:31 AM GMT 4:41 PM GMT
Nautical Twilight 6:47 AM GMT 5:25 PM GMT
Astronomical Twilight 6:05 AM GMT 6:07 PM GMT
Moon 11:15 PM GMT (1/3) 10:26 AM GMT (1/3)
Length of Visible Light 9h 10m
Length of Day
7h 47m
Waning Gibbous, 68% of the Moon is Illuminated
Jan 3
Waning Gibbous
Jan 5
Last Quarter
Jan 11
New
Jan 18
First Quarter
Jan 27
Full

Hourly Weather History & Observations

Time (GMT) Temp. Windchill Dew Point Humidity Pressure Visibility Wind Dir Wind Speed Gust Speed Precip Events Conditions
12:50 AM 50.0 °F - 48.2 °F 94% 30.24 in 6.2 mi WSW 21.9 mph - N/A   Unknown
1:50 AM 50.0 °F - 48.2 °F 94% 30.27 in 6.2 mi West 20.7 mph - N/A   Unknown
2:50 AM 50 °F - 48 °F 92% 30.30 in 9 mi WSW 20.7 mph - -   Scattered Clouds
2:50 AM 50.0 °F - 48.2 °F 94% 30.27 in 6.2 mi WSW 20.7 mph - N/A   Scattered Clouds
3:50 AM 50.0 °F - 48.2 °F 94% 30.30 in 6.2 mi WSW 19.6 mph - N/A   Partly Cloudy
4:50 AM 48.2 °F - 48.2 °F 100% 30.30 in 4.3 mi WSW 18.4 mph - N/A   Mostly Cloudy
5:50 AM 49 °F - 47 °F 92% 30.35 in 4 mi WSW 17.3 mph - -   Mist
5:50 AM 48.2 °F - 48.2 °F 100% 30.33 in 4.3 mi WSW 17.3 mph - N/A   Partly Cloudy
6:50 AM 48.2 °F - 48.2 °F 100% 30.36 in 5.0 mi West 15.0 mph - N/A   Mostly Cloudy
7:50 AM 48.2 °F - 46.4 °F 93% 30.39 in 6.2 mi WSW 18.4 mph - N/A   Partly Cloudy
8:50 AM 49 °F - 47 °F 90% 30.41 in 7 mi West 17.3 mph - -   Scattered Clouds
8:50 AM 48.2 °F - 46.4 °F 93% 30.39 in 6.2 mi West 17.3 mph - N/A   Partly Cloudy
9:50 AM 50.0 °F - 48.2 °F 94% 30.42 in 6.2 mi West 15.0 mph - N/A   Unknown
10:50 AM 50.0 °F - 48.2 °F 94% 30.45 in 6.2 mi WSW 15.0 mph - N/A   Mostly Cloudy
11:50 AM 49 °F - 48 °F 93% 30.45 in 7 mi WSW 15.0 mph - -   Mostly Cloudy
11:50 AM 50.0 °F - 48.2 °F 94% 30.45 in 6.2 mi WSW 15.0 mph - N/A   Mostly Cloudy
12:50 PM 50.0 °F - 48.2 °F 94% 30.45 in 6.2 mi WSW 13.8 mph - N/A   Unknown
1:50 PM 51.8 °F - 48.2 °F 88% 30.45 in 6.2 mi WSW 11.5 mph - N/A   Scattered Clouds
2:50 PM 52 °F - 49 °F 87% 30.48 in 19 mi WSW 11.5 mph - -   Mostly Cloudy
2:50 PM 51.8 °F - 50.0 °F 94% 30.48 in 6.2 mi WSW 11.5 mph - N/A   Mostly Cloudy
3:50 PM 51.8 °F - 48.2 °F 88% 30.48 in 6.2 mi WSW 12.7 mph - N/A   Mostly Cloudy
4:50 PM 50.0 °F - 48.2 °F 94% 30.48 in 6.2 mi WSW 15.0 mph - N/A   Partly Cloudy
5:50 PM 49 °F - 47 °F 92% 30.51 in 6 mi West 18.4 mph - -   Mostly Cloudy
5:50 PM 50.0 °F - 48.2 °F 94% 30.48 in 6.2 mi West 18.4 mph - N/A   Mostly Cloudy
6:50 PM 50.0 °F - 48.2 °F 94% 30.51 in 6.2 mi West 19.6 mph - N/A   Overcast
7:50 PM 50.0 °F - 46.4 °F 87% 30.51 in 6.2 mi WSW 17.3 mph - N/A   Scattered Clouds
8:50 PM 49 °F - 47 °F 88% 30.53 in 6 mi West 16.1 mph - -   Mostly Cloudy
8:50 PM 48.2 °F - 46.4 °F 93% 30.51 in 6.2 mi West 16.1 mph - N/A   Mostly Cloudy
9:50 PM 48.2 °F - 46.4 °F 93% 30.54 in 5.0 mi West 16.1 mph - N/A   Mostly Cloudy
10:50 PM 46.4 °F 44.3 °F 44.6 °F 93% 30.54 in 4.3 mi WSW 4.6 mph - N/A   Mist
11:50 PM 47 °F - 46 °F 93% 30.57 in 9 mi WSW 11.5 mph - -   Mostly Cloudy
11:50 PM 46.4 °F 41.1 °F 46.4 °F 100% 30.54 in 6.2 mi WSW 11.5 mph - N/A   Mostly Cloudy